TimeCET,TemperatureF,Dew PointF,Humidity,Sea Level PressureIn,VisibilityMPH,Wind Direction,Wind SpeedMPH,Gust SpeedMPH,PrecipitationIn,Events,Conditions,WindDirDegrees,DateUTC
12:50 AM,6.8,3.2,85,29.80,-9999.0,SW,2.3,-,N/A,,Clear,220,2013-11-21 23:50:00
1:00 AM,6,3,81,29.83,47,WSW,2.2,,,,Partly Cloudy,250,2013-11-22 00:00:00
1:50 AM,6.8,3.2,85,29.77,-9999.0,Variable,1.2,-,N/A,,Clear,0,2013-11-22 00:50:00
2:50 AM,3.2,-0.4,85,29.74,-9999.0,SW,1.2,-,N/A,,Clear,230,2013-11-22 01:50:00
3:50 AM,1.4,-2.2,85,29.71,-9999.0,Variable,1.2,-,N/A,,Clear,0,2013-11-22 02:50:00
4:00 AM,3,1,86,29.74,47,WNW,2.2,,,,Partly Cloudy,300,2013-11-22 03:00:00
4:50 AM,8.6,6.8,92,29.68,6.2,Variable,1.2,-,N/A,,Mostly Cloudy,0,2013-11-22 03:50:00
5:20 AM,12.2,10.4,92,29.65,6.2,Variable,2.3,-,N/A,,Mostly Cloudy,0,2013-11-22 04:20:00
5:50 AM,14.0,10.4,86,29.62,6.2,Variable,1.2,-,N/A,,Mostly Cloudy,0,2013-11-22 04:50:00
6:20 AM,15.8,12.2,86,29.62,6.2,SSW,1.2,-,N/A,,Mostly Cloudy,200,2013-11-22 05:20:00
6:50 AM,15.8,12.2,86,29.59,6.2,Variable,1.2,-,N/A,,Mostly Cloudy,0,2013-11-22 05:50:00
7:00 AM,17,13,77,29.62,44,East,2.2,,,,Partly Cloudy,80,2013-11-22 06:00:00
7:20 AM,17.6,14.0,86,29.56,6.2,Variable,3.5,-,N/A,,Mostly Cloudy,0,2013-11-22 06:20:00
7:50 AM,19.4,14.0,80,29.53,6.2,Variable,2.3,-,N/A,,Mostly Cloudy,0,2013-11-22 06:50:00
8:20 AM,17.6,14.0,86,29.53,6.2,Variable,2.3,-,N/A,,Mostly Cloudy,0,2013-11-22 07:20:00
8:50 AM,17.6,14.0,86,29.50,6.2,Variable,2.3,-,N/A,,Mostly Cloudy,0,2013-11-22 07:50:00
9:20 AM,17.6,15.8,93,29.50,6.2,Variable,1.2,-,N/A,,Mostly Cloudy,0,2013-11-22 08:20:00
9:50 AM,19.4,15.8,86,29.47,6.2,Variable,2.3,-,N/A,,Mostly Cloudy,0,2013-11-22 08:50:00
10:20 AM,19.4,17.6,93,29.44,6.2,North,3.5,-,N/A,,Mostly Cloudy,10,2013-11-22 09:20:00
10:50 AM,21.2,17.6,86,29.44,6.2,South,3.5,-,N/A,,Mostly Cloudy,180,2013-11-22 09:50:00
11:20 AM,23.0,19.4,86,29.42,6.2,WNW,3.5,-,N/A,,Mostly Cloudy,300,2013-11-22 10:20:00
11:50 AM,23.0,21.2,93,29.39,6.2,South,1.2,-,N/A,,Mostly Cloudy,180,2013-11-22 10:50:00
12:20 PM,23.0,21.2,93,29.36,6.2,Variable,1.2,-,N/A,,Mostly Cloudy,0,2013-11-22 11:20:00
12:50 PM,26.6,23.0,86,29.33,6.2,Variable,1.2,-,N/A,,Mostly Cloudy,0,2013-11-22 11:50:00
1:00 PM,28,25,82,29.36,28,ESE,4.5,,,,Mostly Cloudy,110,2013-11-22 12:00:00
1:20 PM,32.0,26.6,80,29.30,6.2,SE,5.8,-,N/A,,Mostly Cloudy,130,2013-11-22 12:20:00
1:50 PM,33.8,24.8,70,29.27,6.2,SSE,3.5,-,N/A,,Mostly Cloudy,160,2013-11-22 12:50:00
2:20 PM,33.8,24.8,70,29.24,6.2,SSE,4.6,-,N/A,,Mostly Cloudy,160,2013-11-22 13:20:00
2:50 PM,32.0,24.8,75,29.27,6.2,Variable,3.5,-,N/A,Rain-Snow,Light Snow,0,2013-11-22 13:50:00
3:20 PM,35.6,30.2,81,29.30,3.1,SW,9.2,-,N/A,Rain-Snow,Light Rain,220,2013-11-22 14:20:00
3:50 PM,33.8,32.0,93,29.30,6.2,SSW,10.4,-,N/A,Rain-Snow,Light Rain Showers,210,2013-11-22 14:50:00
4:00 PM,34,32,88,29.33,12,SSW,11.2,,,Snow,Light Snow Showers,200,2013-11-22 15:00:00
4:20 PM,35.6,28.4,75,29.33,6.2,SW,9.2,-,N/A,Rain-Snow,Light Rain Showers,230,2013-11-22 15:20:00
4:50 PM,33.8,28.4,81,29.33,6.2,West,15.0,26.5,N/A,Rain-Snow,Light Snow Showers,260,2013-11-22 15:50:00
5:20 PM,33.8,30.2,87,29.36,1.6,West,15.0,-,N/A,Rain-Snow,Light Snow Showers,260,2013-11-22 16:20:00
5:50 PM,33.8,30.2,87,29.36,5.6,WSW,12.7,-,N/A,Rain-Snow,Light Snow Showers,250,2013-11-22 16:50:00
6:20 PM,32.0,28.4,87,29.39,1.2,West,11.5,-,N/A,Snow,Snow Showers,270,2013-11-22 17:20:00
6:50 PM,30.2,28.4,93,29.42,0.7,West,17.3,28.8,N/A,Snow,Snow Showers,260,2013-11-22 17:50:00
7:00 PM,31,29,89,29.44,1,West,13.4,,,Snow,Heavy Snow Showers,270,2013-11-22 18:00:00
7:50 PM,30.2,26.6,86,29.44,1.6,West,15.0,-,N/A,Snow,Light Snow Showers,270,2013-11-22 18:50:00
8:50 PM,30.2,23.0,75,29.47,6.2,WSW,15.0,26.5,N/A,Snow,Light Snow Showers,250,2013-11-22 19:50:00
9:50 PM,30.2,19.4,64,29.47,6.2,WSW,12.7,-,N/A,Snow,Light Snow Showers,250,2013-11-22 20:50:00
10:00 PM,28,24,77,29.52,12,West,13.4,,,Snow,Light Snow Showers,260,2013-11-22 21:00:00
10:50 PM,28.4,23.0,80,29.47,6.2,WSW,12.7,-,N/A,Snow,Light Snow Showers,240,2013-11-22 21:50:00
11:50 PM,28.4,23.0,80,29.50,6.2,WSW,4.6,-,N/A,Snow,Light Snow Showers,250,2013-11-22 22:50:00